Hourly Data Report for October 04, 2020

MUSKOKA
ONTARIO
Current Station Operator: NAVCAN

44°58'29.000" N
79°18'12.000" W
281.90 m
6115529
71532
YQA

Download Data

Hourly Data (October 2020)
Hourly Data Report for October 4, 2020
TIME Temp Definition
°C
Dew Point Definition
°C
Rel Hum Definition
%
Wind Dir Definition
10's deg

Wind Spd Definition
km/h
Visibility Definition
km
Stn Press Definition
kPa
Hmdx Definition


Wind Chill Definition


Weather Definition


00:00 4.5 4.4 99   0 16.1 98.92     LegendNANA
01:00 3.7 3.6 99   0 1.6 98.91     Fog
02:00 2.3 2.2 99 34 4 11.3 98.89     LegendNANA
03:00 0.6 0.5 99 16 4 1.2 98.87     Fog
04:00 0.3 0.2 99   0 16.1 98.85     LegendNANA
05:00 0.5 0.5 100 31 4 16.1 98.86     LegendNANA
06:00 1.5 1.5 100 LegendMM 4 16.1 98.85     LegendNANA
07:00 2.4 2.4 100   0 16.1 98.87     LegendNANA
08:00 4.8 4.7 99   0 16.1 98.85     LegendNANA
09:00 6.5 5.8 95 12 5 16.1 98.85     LegendNANA
10:00 6.9 6.3 96 11 8 16.1 98.82     Rain
11:00 7.2 6.3 94 LegendMM 4 14.5 98.77     Rain
12:00 7.2 6.5 95 5 5 11.3 98.71     Rain
13:00 7.0 6.0 93 LegendMM 8 16.1 98.63     Rain
14:00 7.2 6.3 94 9 5 16.1 98.57     Rain
15:00 7.3 6.7 96 8 5 16.1 98.55     Rain
16:00 7.1 6.6 97 4 8 16.1 98.50     LegendNANA
17:00 7.0 6.6 97 LegendMM 5 16.1 98.49     Rain
18:00 6.9 6.5 97 LegendMM 4 14.5 98.50     Rain
19:00 6.7 6.3 97 LegendMM 4 16.1 98.52     Rain
20:00 6.6 6.2 97 LegendMM 4 16.1 98.52     Rain
21:00 6.7 6.3 97 LegendMM 4 16.1 98.53     Rain
22:00 6.7 6.3 97 4 8 16.1 98.51     Rain
23:00 6.8 6.5 98 LegendMM 4 16.1 98.52     LegendNANA

Notes on Data Quality.

Legend

  • E = Estimated
  • M = Missing
  • NA = Not Available*
  • [empty] = Indicates an unobserved value
Date modified: